GW3861 Weather Reports


time (UTC)temp
F
wind
direction
speed
knots
gust
knots
rain 1hr
in
rain 24hr
in
rain mn
in
humidity
%
barometer
mb
20260504044542 58 0 0.0 2.6 0.00 0.00 0.00 53 1014.8
20260504043046 57 0 0.9 4.3 0.00 0.00 0.00 56 1014.7
20260504041545 57 97 0.0 3.5 0.00 0.00 0.00 56 1014.5
20260504040045 57 0 0.0 2.6 0.00 0.00 0.00 57 1014.9
20260504034552 56 0 0.0 2.6 0.00 0.00 0.00 58 1014.9
20260504033055 56 118 0.0 0.9 0.00 0.00 0.00 59 1015.1
20260504031600 55 0 0.0 0.9 0.00 0.00 0.00 60 1015.3
20260504030109 55 0 0.0 0.9 0.00 0.00 0.00 59 1015.4
20260504024548 56 0 0.0 0.9 0.00 0.00 0.00 57 1015.5
20260504023041 56 0 0.0 0.9 0.00 0.00 0.00 57 1015.4
20260504021544 56 0 0.0 1.7 0.00 0.00 0.00 58 1015.5
20260504020050 58 0 0.0 0.9 0.00 0.00 0.00 54 1015.3
20260504014545 60 0 0.0 1.7 0.00 0.00 0.00 47 1015.0
20260504013043 61 0 0.0 1.7 0.00 0.00 0.00 43 1014.7
20260504011541 62 0 0.0 3.5 0.00 0.00 0.00 42 1014.6
20260504010047 63 0 0.0 3.5 0.00 0.00 0.00 41 1014.8
20260504004546 63 0 0.0 2.6 0.00 0.00 0.00 41 1014.6
20260504003046 64 219 0.0 2.6 0.00 0.00 0.00 41 1014.7
20260504001543 65 226 1.7 5.2 0.00 0.00 0.00 39 1014.7
20260503234546 66 360 0.9 5.2 0.00 0.00 0.00 37 1015.1
20260503233050 67 360 2.6 5.2 0.00 0.00 0.00 36 1015.3
20260503231549 67 360 1.7 4.3 0.00 0.00 0.00 36 1015.4
20260503230044 67 360 1.7 4.3 0.00 0.00 0.00 35 1015.6
20260503224541 67 360 1.7 6.1 0.00 0.00 0.00 36 1015.7
20260503223040 67 360 2.6 9.6 0.00 0.00 0.00 33 1015.8
20260503221547 67 360 2.6 7.8 0.00 0.00 0.00 32 1015.9
20260503220046 68 360 2.6 10.4 0.00 0.00 0.00 33 1016.1
20260503214543 68 308 3.5 10.4 0.00 0.00 0.00 35 1016.4
20260503213043 69 176 1.7 5.2 0.00 0.00 0.00 33 1016.5
20260503211552 68 299 3.5 9.6 0.00 0.00 0.00 34 1016.9
20260503210047 68 94 3.5 7.8 0.00 0.00 0.00 32 1017.2
20260503204546 68 0 0.9 6.1 0.00 0.00 0.00 36 1017.4
20260503203045 68 252 1.7 7.0 0.00 0.00 0.00 33 1017.7
20260503201546 67 253 1.7 8.7 0.00 0.00 0.00 33 1018.0
20260503200040 66 54 2.6 7.8 0.00 0.00 0.00 34 1018.4
20260503194547 67 288 5.2 11.3 0.00 0.00 0.00 34 1018.9
20260503193045 67 300 1.7 7.0 0.00 0.00 0.00 33 1019.0
20260503191543 66 360 1.7 7.0 0.00 0.00 0.00 36 1019.2
20260503190043 65 360 0.9 7.0 0.00 0.00 0.00 36 1019.4
20260503184605 65 360 1.7 5.2 0.00 0.00 0.00 34 1019.6
20260503183051 64 360 0.9 5.2 0.00 0.00 0.00 35 1019.7
20260503181554 64 360 3.5 8.7 0.00 0.00 0.00 35 1019.9
20260503180044 63 360 0.9 2.6 0.00 0.00 0.00 37 1020.1
20260503174543 62 360 1.7 7.0 0.00 0.00 0.00 37 1020.3
20260503173045 61 360 0.9 5.2 0.00 0.00 0.00 39 1020.4
20260503171609 62 360 3.5 8.7 0.00 0.00 0.00 44 1020.7
20260503081546 42 0 0.0 0.0 0.00 0.00 0.00 93 1019.9
20260503071603 43 0 0.0 0.0 0.00 0.00 0.00 92 1019.8